This is the latest recevied weather packets stored in our database for station/object CA3EVY-3. If no packets are shown the sender has not sent any weather packets the latest 10 day(s).
| Time | Temp. | Humidity | Pressure | Rain* | Wind** | Luminosity | Snow |
|---|---|---|---|---|---|---|---|
| 1778007603 | 20.56° C | 35% | 915.1 hPa | - | - | - | - |
| 1778006704 | 20.56° C | 35% | 915 hPa | - | - | - | - |
| 1778005803 | 20.56° C | 35% | 914.9 hPa | - | - | - | - |
| 1778004904 | 20.56° C | 35% | 914.8 hPa | - | - | - | - |
| 1778004004 | 20.56° C | 36% | 914.9 hPa | - | - | - | - |
| 1778003104 | 20° C | 36% | 914.9 hPa | - | - | - | - |
| 1778002203 | 20° C | 37% | 914.6 hPa | - | - | - | - |
| 1778001304 | 20° C | 37% | 914.8 hPa | - | - | - | - |
| 1778000403 | 19.44° C | 39% | 914.8 hPa | - | - | - | - |
| 1777999504 | 19.44° C | 39% | 914.9 hPa | - | - | - | - |
| 1777998606 | 19.44° C | 39% | 915 hPa | - | - | - | - |
| 1777997703 | 18.89° C | 39% | 914.9 hPa | - | - | - | - |
| 1777996804 | 18.33° C | 45% | 914.9 hPa | - | - | - | - |
| 1777995903 | 18.33° C | 45% | 914.9 hPa | - | - | - | - |
| 1777995005 | 17.78° C | 43% | 915.2 hPa | - | - | - | - |
| 1777994104 | 17.78° C | 43% | 915.5 hPa | - | - | - | - |
| 1777993204 | 17.22° C | 43% | 915.8 hPa | - | - | - | - |
| 1777992303 | 17.22° C | 43% | 915.8 hPa | - | - | - | - |
| 1777991404 | 17.22° C | 43% | 915.9 hPa | - | - | - | - |
| 1777990503 | 16.67° C | 43% | 915.8 hPa | - | - | - | - |
| 1777989604 | 16.67° C | 43% | 915.9 hPa | - | - | - | - |
| 1777988704 | 16.11° C | 43% | 916.1 hPa | - | - | - | - |
| 1777987804 | 15.56° C | 44% | 916.4 hPa | - | - | - | - |
| 1777986904 | 15.56° C | 44% | 916.3 hPa | - | - | - | - |
| 1777986003 | 15° C | 45% | 916.4 hPa | - | - | - | - |
* Rain since midnight (hover to see other rain measurements)
** Current wind speed in m/s (hover to see current wind gust speed)